Weather in Pereval'noe

Russia / Republic of Crimea     44°50′23″N   34°19′20″E
temp.,
°C
wind,
m/s
gust,
m/s
humid.,
%
clouds,
%
prec.,
mm/h
press.,
hPa
HPBL,
m
2 march, tue
tue200:00−1nne119385 1.1 103059
03:00−3n129479 1.5 103040
06:00−4nnw129620 0.0 103051
09:00−1nw128314 0.0 1031196
12:00+2wnw22680 0.0 1030788
15:00+3wnw236923 0.0 1030841
18:00−1w348413 0.0 1027243
21:00−2w359541 0.0 1027275
3 march, wed
wed300:00−1w469399 0.0 1025419
03:000w5119599 0.0 1023682
06:00+1wnw61097100 0.1 1022874
09:00−1nw3793100 0.1 1024598
12:00+1nnw477699 0.3 10251041
15:00+3nnw356477 0.3 1026985
18:00+1nw22730 0.0 102736
21:00−2nw11790 0.0 102929
4 march, thu
thu400:00−2wnw11780 0.0 102927
03:00−2sw11750 0.0 102926
06:00−2sw11700 0.0 102726
09:00+1sse12670 0.0 1027148
12:00+4s23600 0.0 1026794
15:00+6ssw12550 0.0 1024944
18:00+2ssw01790 0.0 102253
21:00−2s23890 0.0 102162
5 march, fri
fri500:00−2sse23920 0.0 102093
03:00−1sse33900 0.0 101994
06:00−1sse23810 0.0 101872
09:00+2sse34748 0.0 1018134
12:00+7sse35636 0.0 1017414
15:00+9s37509 0.0 1015726
18:00+4sse237866 0.0 101486
21:00+2s238063 0.0 101596
6 march, sat
sat600:00+2ssw2389100 0.0 101460
03:00+3sw237792 0.0 101334
06:00+4sw2370100 0.0 101334
09:00+6wsw2674100 0.0 1014283
12:00+8wnw2672100 0.0 1015870
15:00+5n2385100 0.2 1016354
18:00−2nnw5892100 2.3 1018508
21:00−3nw4790100 2.6 1021594